Lake Lure Weather Center

Moon Phase Calendar



Lake Lure Water Level
Online Cameras

 


      

Current Conditions in Lake Lure
7/26/2021 1:16:08 AM

74°F
Feels Like 76
Clouds
Humidity
98%
Pressure
30"
Wind
2.8 mph (WNW)
Dew Point
74°F
UV Index
0/10 (Low)
Visibility
6 mi

Hourly Forecast

Date & Time Mon, Jul 26
1:00 AM
Mon, Jul 26
2:00 AM
Mon, Jul 26
3:00 AM
Mon, Jul 26
4:00 AM
Mon, Jul 26
5:00 AM
Mon, Jul 26
6:00 AM
Mon, Jul 26
7:00 AM
Mon, Jul 26
8:00 AM
Mon, Jul 26
9:00 AM
Mon, Jul 26
10:00 AM
Mon, Jul 26
11:00 AM
Mon, Jul 26
12:00 PM
Mon, Jul 26
1:00 PM
Mon, Jul 26
2:00 PM
Mon, Jul 26
3:00 PM
Mon, Jul 26
4:00 PM
Mon, Jul 26
5:00 PM
Mon, Jul 26
6:00 PM
Mon, Jul 26
7:00 PM
Mon, Jul 26
8:00 PM
Mon, Jul 26
9:00 PM
Mon, Jul 26
10:00 PM
Mon, Jul 26
11:00 PM
Tue, Jul 27
12:00 AM
Tue, Jul 27
1:00 AM
Tue, Jul 27
2:00 AM
Tue, Jul 27
3:00 AM
Tue, Jul 27
4:00 AM
Tue, Jul 27
5:00 AM
Tue, Jul 27
6:00 AM
Tue, Jul 27
7:00 AM
Tue, Jul 27
8:00 AM
Tue, Jul 27
9:00 AM
Tue, Jul 27
10:00 AM
Tue, Jul 27
11:00 AM
Tue, Jul 27
12:00 PM
Tue, Jul 27
1:00 PM
Tue, Jul 27
2:00 PM
Tue, Jul 27
3:00 PM
Tue, Jul 27
4:00 PM
Tue, Jul 27
5:00 PM
Tue, Jul 27
6:00 PM
Tue, Jul 27
7:00 PM
Tue, Jul 27
8:00 PM
Tue, Jul 27
9:00 PM
Tue, Jul 27
10:00 PM
Tue, Jul 27
11:00 PM
Wed, Jul 28
12:00 AM
Condition
Clouds

Clouds

Clouds

Clouds

Clouds

Clouds

Clouds

Clouds

Clouds

Clouds

Clouds

Rain

Rain

Rain

Rain

Rain

Rain

Rain

Rain

Rain

Rain

Rain

Clouds

Rain

Clouds

Clouds

Clouds

Clouds

Clouds

Clouds

Clouds

Clouds

Clouds

Clouds

Clouds

Clouds

Clouds

Rain

Rain

Rain

Rain

Rain

Rain

Rain

Rain

Rain

Rain

Clouds
Temperature 74°F74°F73°F72°F71°F70°F70°F74°F78°F82°F87°F89°F90°F90°F86°F82°F83°F81°F80°F77°F75°F73°F72°F72°F71°F71°F71°F71°F71°F70°F71°F74°F78°F82°F86°F89°F90°F91°F89°F86°F84°F79°F78°F75°F73°F73°F72°F72°F
Feels Like 76°F75°F75°F74°F72°F71°F71°F75°F79°F86°F91°F95°F97°F97°F93°F89°F90°F87°F80°F79°F76°F75°F74°F73°F73°F72°F72°F72°F72°F71°F72°F75°F79°F87°F92°F95°F96°F98°F97°F94°F91°F79°F80°F76°F74°F74°F74°F73°F
Cloudiness 41%41%39%33%27%25%24%30%86%92%93%95%95%95%100%100%100%100%100%100%95%95%96%93%95%94%88%93%93%92%92%87%47%73%82%86%89%91%100%100%100%100%98%98%100%99%99%97%
Visibility 6 mi6 mi6 mi6 mi6 mi6 mi6 mi6 mi6 mi6 mi6 mi6 mi6 mi6 mi6 mi6 mi6 mi6 mi6 mi6 mi6 mi6 mi6 mi6 mi6 mi6 mi6 mi6 mi6 mi6 mi6 mi6 mi6 mi6 mi6 mi6 mi6 mi6 mi6 mi6 mi6 mi6 mi6 mi6 mi6 mi6 mi6 mi6 mi
Precipitation 47%47%0%0%0%3%9%9%15%17%31%43%55%56%67%63%59%63%78%80%78%74%71%71%71%67%17%17%26%33%32%32%13%9%9%12%24%34%59%59%59%64%69%90%91%92%88%88%
Humidity 98%96%95%94%93%92%92%87%78%67%57%55%55%56%66%76%73%80%84%86%89%92%94%95%95%95%95%95%94%95%94%91%82%71%61%56%51%53%60%69%74%85%87%93%95%95%94%94%
Dew Point 74°F73°F72°F70°F69°F66°F66°F67°F68°F68°F68°F69°F69°F69°F70°F71°F71°F72°F72°F71°F69°F69°F68°F68°F68°F67°F67°F67°F67°F66°F67°F69°F70°F70°F69°F69°F68°F69°F70°F72°F72°F72°F72°F70°F69°F69°F68°F68°F
Pressure 30"30"30"29.97"29.97"29.97"30"30"30"30"30"29.97"29.97"29.97"29.94"29.97"29.97"29.94"29.97"29.97"30"30"30.03"30.03"30"30"30"30"30.03"30.03"30.03"30.03"30.03"30.03"30.03"30.03"30"30"29.97"29.97"29.97"30"30"30"30.03"30.03"30.03"30.03"
Wind Speed 2.8 mph3 mph3.1 mph2.5 mph2.5 mph2.9 mph2.8 mph1.9 mph1.7 mph2.4 mph2.1 mph2.2 mph1.5 mph0.9 mph3 mph2.1 mph1.4 mph2.9 mph2 mph2.7 mph2.8 mph2.4 mph2 mph1.9 mph2.7 mph2.6 mph2.5 mph2.5 mph2.5 mph2.2 mph2.4 mph2 mph1.1 mph1.6 mph2.8 mph2.9 mph3.5 mph4.3 mph4.3 mph4.4 mph6.2 mph4.7 mph4.5 mph4.1 mph4.6 mph4.3 mph2.8 mph1.7 mph
Wind
Direction
291°
WNW
299°
WNW
301°
WNW
294°
WNW
295°
WNW
290°
WNW
288°
WNW
273°
W
247°
WSW
221°
SW
191°
S
162°
SSE
166°
SSE
290°
WNW
300°
WNW
299°
WNW
301°
WNW
273°
W
306°
NW
317°
NW
351°
N

N
14°
NNE

N
320°
NW
298°
WNW
306°
NW
333°
NNW
333°
NNW
329°
NNW
328°
NNW
319°
NW
288°
WNW
196°
SSW
171°
S
166°
SSE
162°
SSE
167°
SSE
182°
S
225°
SW
262°
W
299°
WNW
315°
NW
359°
N
357°
N
328°
NNW
301°
WNW
305°
NW

Daily Forecast

Date High Low Precip. Humidity
Today
Jul 26

Rain
90 °F
70 °F
80%
55%
Tuesday
Jul 27

Rain
91 °F
70 °F
90%
51%
Wednesday
Jul 28

Clear
95 °F
69 °F
87%
35%
Thursday
Jul 29

Clouds
98 °F
73 °F
15%
29%
Friday
Jul 30

Rain
94 °F
73 °F
69%
42%
Saturday
Jul 31

Clouds
92 °F
70 °F
9%
42%
Sunday
Aug 1

Rain
95 °F
72 °F
72%
39%
Monday
Aug 2

Rain
92 °F
73 °F
84%
45%
Tuesday
Aug 3

Rain
89 °F
71 °F
36%
40%
Wednesday
Aug 4

Rain
79 °F
69 °F
90%
87%
Thursday
Aug 5

Rain
87 °F
72 °F
91%
66%
Friday
Aug 6

Rain
95 °F
72 °F
66%
37%
Saturday
Aug 7

Clear
97 °F
73 °F
0%
32%
Sunday
Aug 8

Clear
99 °F
74 °F
16%
28%
Monday
Aug 9

Rain
94 °F
71 °F
86%
41%
Tuesday
Aug 10

Rain
92 °F
70 °F
54%
48%

Temperature 8-14 Day Outlook



Precipitation 8-14 Day Outlook




Quick Links
Lake Lure News
Lake Lure Photos
Lake Lure Videos




About Us
Contact Us
Site Map
Search Site
Advertise With Us
   
Lure.LakesOnline.com
THE LAKE LURE WEBSITE

Copyright 2021, Lakes Online
Privacy    |    Legal